STARLINK-1729 (46583 NORAD) Tracking and Keplerian Element Data

This shows tracking and keplerian element data for the satellite.

Feedback or suggestion? Click here.




ElementValue
Catalog46583
NameSTARLINK-1729
Epoch Orbit175
Epoch Day26.91667824
Epoch Year2021
RAAN281.3824
Inclination52.9996
Eccentricity0.0002488
Argument of Perigee75.6603
Mean Anonmoly263.8869
Mean Motion15.05603135
Decay Rate-0.00024224
L11 46583U 20070BD 21026.91667824 -.00024224 00000-0 -16479-2 0 9994
L22 46583 52.9996 281.3824 0002488 75.6603 263.8869 15.05603135 1759

Live tracking and technical data element details for STARLINK-1729 (NORAD 46583). STARLINK-1729 can be tracked NOW for your location showing map with azimuth and elevation plus other details from your city location.

Track the satellite on the map from your city or location and see movement details for azimuth, elevation, latitude, longitude, range, height, and movement on the map or in text.







IsCatalogInMostPopularTable: catalog: 46583, numindb: 42
Update: records affected: 1



GetName: 46583 STARLINK-1729

Hit Count: updated at: Thu, 28 Jan 2021 11:20:52 GMT